Home > Weather > Islamabad > Past weeks

Flag for Pakistan Weather for the Past 2 Weeks in Islamabad, Pakistan

Now
70 °F

Haze.


Feels Like: 70 °F
Forecast: 43 / 68 °F
Wind: 5 mph from Southwest

Location: Islamabad Airport

Current Time: Feb 8, 2016 at 4:04:42 PM

Latest Report: Feb 8, 2016 at 3:30 PM


Visibility: 2 mi

Pressure: 30.07 "Hg (28.20 "Hg at 554m altitude)

Humidity: 43%

Dew point: 46 °F

Location of IslamabadLocation

Historic Weather in Islamabad — Graph

°F

Islamabad Temperature Yesterday

Maximum temperature yesterday: 70 °F (at 3:00 PM)
Minimum temperature yesterday: 52 °F (at 3:00 AM)
Average temperature yesterday: 61 °F

High & Low Weather Summary for the Past Weeks

 TemperatureHumidityPressure
High73 °F (Feb 5, 2:00 PM)100% (Jan 28, 4:00 AM)30.15 "Hg (Jan 28, 4:00 AM)
Low37 °F (Jan 25, 7:00 AM)27% (Feb 5, 2:00 PM)29.89 "Hg (Feb 6, 5:00 AM)
Average55 °F69%30.05 "Hg
* Reported Jan 24 5:00 PM — Feb 8 3:00 PM, Islamabad, Weather by CustomWeather, © 2016

Note: Actual official high and low records may vary slightly from our data, if they occured in-between our weather recording intervals... More about our weather records

Advertising

Islamabad Weather History for the Previous 24 Hours

 ConditionsComfort  
Time TempWeatherWind HumidityBarometerVisibility
3:00 PM
Mon, Feb 8
70 °FHaze.5 mph43%30.07 "Hg2 mi
2:30 PM68 °FHaze.5 mph53%30.09 "Hg2 mi
2:00 PM68 °FHaze.5 mph53%30.09 "Hg2 mi
1:30 PM68 °FHaze.5 mph53%30.12 "Hg2 mi
1:00 PM68 °FHaze.5 mph53%30.12 "Hg2 mi
12:30 PM64 °FHaze.5 mph60%30.15 "Hg2 mi
12:00 PM64 °FHaze.5 mph60%30.15 "Hg2 mi
9:53 AM50 °FHaze.No wind76%N/A1 mi
10:00 PM
Sun, Feb 7
55 °FHaze.7 mph72%30.09 "Hg2 mi
9:30 PM57 °FHaze.9 mph67%30.09 "Hg2 mi
9:00 PM57 °FHaze.9 mph67%30.09 "Hg2 mi
8:30 PM59 °FHaze.5 mph63%30.09 "Hg2 mi
8:00 PM59 °FHaze.5 mph63%30.09 "Hg2 mi
7:30 PM61 °FHaze.5 mph63%30.07 "Hg2 mi
7:00 PM61 °FClear.5 mph63%30.07 "Hg4 mi
6:30 PM64 °FClear.5 mph56%30.07 "Hg4 mi
6:00 PM64 °FClear.5 mph56%30.07 "Hg4 mi
5:30 PM68 °FClear.7 mph43%30.04 "Hg4 mi
5:00 PM70 °FClear.7 mph40%30.04 "Hg4 mi
4:00 PM70 °FClear.5 mph33%30.04 "Hg4 mi
Weather by CustomWeather, © 2016

See weather overviewHow to use our weather pages